Satellite: IO-26
Catalog number: 22826
Epoch time:      10177.24753950
Element set:     299
Inclination:      098.4787 deg
RA of node:       125.5605 deg
Eccentricity:    0.0008045
Arg of perigee:   235.3441 deg
Mean anomaly:     124.6990 deg
Mean motion:   14.29556998 rev/day
Decay rate:        1.4e-07 rev/day^2
Epoch rev:           87345
Checksum:              337

Satellite: AO-27
Catalog number: 22825
Epoch time:      10177.39370133
Element set:     563
Inclination:      098.4855 deg
RA of node:       125.1060 deg
Eccentricity:    0.0007665
Arg of perigee:   238.4085 deg
Mean anomaly:     121.6355 deg
Mean motion:   14.29300207 rev/day
Decay rate:       -8.2e-07 rev/day^2
Epoch rev:           87336
Checksum:              295

Satellite: LO-19
Catalog number: 20442
Epoch time:      10177.40925588
Element set:     840
Inclination:      098.2925 deg
RA of node:       140.7169 deg
Eccentricity:    0.0012649
Arg of perigee:   130.9807 deg
Mean anomaly:     229.2493 deg
Mean motion:   14.32096271 rev/day
Decay rate:       -3.0e-08 rev/day^2
Epoch rev:            6687
Checksum:              313

Satellite: CO-57
Catalog number: 27848
Epoch time:      10177.49284162
Element set:     827
Inclination:      098.7128 deg
RA of node:       185.4271 deg
Eccentricity:    0.0010001
Arg of perigee:   143.7407 deg
Mean anomaly:     216.4482 deg
Mean motion:   14.20506495 rev/day
Decay rate:        3.8e-07 rev/day^2
Epoch rev:           36236
Checksum:              306

Satellite: NO-44
Catalog number: 26931
Epoch time:      10177.50881681
Element set:     492
Inclination:      067.0506 deg
RA of node:       179.9572 deg
Eccentricity:    0.0005424
Arg of perigee:   263.6012 deg
Mean anomaly:     096.4482 deg
Mean motion:   14.29602400 rev/day
Decay rate:       2.23e-06 rev/day^2
Epoch rev:           45608
Checksum:              297

Satellite: SO-50
Catalog number: 27607
Epoch time:      10177.52275814
Element set:     208
Inclination:      064.5594 deg
RA of node:       328.1610 deg
Eccentricity:    0.0035268
Arg of perigee:   071.9132 deg
Mean anomaly:     288.5780 deg
Mean motion:   14.71550032 rev/day
Decay rate:       -1.7e-07 rev/day^2
Epoch rev:           40375
Checksum:              293

Satellite: CO-65
Catalog number: 32785
Epoch time:      10177.68670609
Element set:     717
Inclination:      097.8972 deg
RA of node:       242.4829 deg
Eccentricity:    0.0013796
Arg of perigee:   253.1340 deg
Mean anomaly:     106.8350 deg
Mean motion:   14.81671067 rev/day
Decay rate:       3.83e-06 rev/day^2
Epoch rev:           11689
Checksum:              339

Satellite: KKS-1
Catalog number: 33493
Epoch time:      10177.71306139
Element set:     608
Inclination:      098.0867 deg
RA of node:       297.2868 deg
Eccentricity:    0.0021344
Arg of perigee:   109.2500 deg
Mean anomaly:     251.1033 deg
Mean motion:   14.81017440 rev/day
Decay rate:       3.07e-06 rev/day^2
Epoch rev:            7689
Checksum:              289

Satellite: GENESAT1
Catalog number: 29655
Epoch time:      10177.77853357
Element set:     130
Inclination:      040.0181 deg
RA of node:       325.9564 deg
Eccentricity:    0.0010543
Arg of perigee:   020.7654 deg
Mean anomaly:     339.3591 deg
Mean motion:   15.96649382 rev/day
Decay rate:    1.43626e-03 rev/day^2
Epoch rev:           20152
Checksum:              302

Satellite: AO-16
Catalog number: 20439
Epoch time:      10177.83228967
Element set:     929
Inclination:      098.3320 deg
RA of node:       135.3587 deg
Eccentricity:    0.0011528
Arg of perigee:   133.9610 deg
Mean anomaly:     226.2529 deg
Mean motion:   14.31865316 rev/day
Decay rate:        2.2e-07 rev/day^2
Epoch rev:            6676
Checksum:              309

/EX
SB KEPS @ AMSAT  $ORB10177.W
Orbital Elements  10177.WEATHER

HR AMSAT ORBITAL ELEMENTS FOR WEATHER SATELLITES
FROM WA5QGD FORT WORTH,TX June 26, 2010
Send Subscribe/unsubscribe to KEPS at http://www.amsat.org/mailman/listinfo/kep
BID: ORB10177.W
TO ALL RADIO AMATEURS BT

Satellite: NOAA-11
Catalog number: 19531
Epoch time:      10176.30178035
Element set:    0123
Inclination:      098.7698 deg
RA of node:       265.1882 deg
Eccentricity:    0.0012082
Arg of perigee:   122.0249 deg
Mean anomaly:     238.2125 deg
Mean motion:   14.14929205 rev/day
Decay rate:       1.34e-06 rev/day^2
Epoch rev:           12228
Checksum:              274

Satellite: FENGYUN1
Catalog number: 25730
Epoch time:      10176.47650484
Element set:    0075
Inclination:      098.7857 deg
RA of node:       141.2161 deg
Eccentricity:    0.0020883
Arg of perigee:   247.1287 deg
Mean anomaly:     112.7679 deg
Mean motion:   14.08184507 rev/day
Decay rate:      -4.83e-06 rev/day^2
Epoch rev:           57285
Checksum:              318

Satellite: OKEAN-0
Catalog number: 25860
Epoch time:      10176.56416955
Element set:    0030
Inclination:      097.8316 deg
RA of node:       148.9766 deg
Eccentricity:    0.0001839
Arg of perigee:   070.8276 deg
Mean anomaly:     289.3126 deg
Mean motion:   14.73645702 rev/day
Decay rate:        2.1e-07 rev/day^2
Epoch rev:           58813
Checksum:              315

